Regional Weather Roundup
Issued by NWS Jackson, KY

Home | Current Version | Previous Version | Graphics & Text | Print | Product List | Glossary On
Versions: 1 2 3 4 5 6 7 8 9 10 11 12 13 14 15 16 17 18 19 20 21 22 23 24 25 26 27 28 29 30 31 32 33 34 35 36 37 38 39 40 41 42 43 44 45 46 47 48 49 50
573
ASUS43 KJKL 261210
RWRJKL

EAST KENTUCKY HOURLY WEATHER ROUNDUP
NATIONAL WEATHER SERVICE JACKSON KY
800 AM EDT SUN MAR 26 2017

NOTE: "FAIR" INDICATES FEW OR NO CLOUDS BELOW 12,000 FEET WITH
NO SIGNIFICANT WEATHER AND/OR OBSTRUCTIONS TO VISIBILITY.

* THESE REPORTS ARE NOT UNDER NWS QUALITY CONTROL AND MAY NOT
  REPORT WEATHER SUCH AS PRECIPITATION AND FOG.

KYZ079-080-083-085-087-088-110-112-115-119-120-261300
...EASTERN KENTUCKY...

CITY           SKY/WX    TMP DP  RH WIND       PRES   REMARKS
JACKSON        LGT RAIN  55  52  89 CALM      30.05R
6HR MIN TEMP:  55; 6HR MAX TEMP:  64; 6HR PCP:  0.05;

LONDON         CLOUDY    56  53  90 S5        30.03S
6HR MIN TEMP:  55; 6HR MAX TEMP:  63; 6HR PCP:  0.22;

SOMERSET*      CLOUDY    55  55 100 SE3       30.03F
MONTICELLO*    CLOUDY    59  56  89 NE7       30.03S
6HR MIN TEMP:  56; 6HR MAX TEMP:  59; 6HR PCP:  0.23;

WILLIAMSBURG*  CLOUDY    55  55 100 SE5       30.04S
MIDDLESBORO*   MOCLDY    58  55  90 S6        30.08S
6HR MIN TEMP:  54; 6HR MAX TEMP:  58; 6HR PCP:  0.16;

HARLAN APT*    CLOUDY    55  52  88 CALM      30.09R
PIKE CO APT*   LGT RAIN  60  49  68 S6        30.06S
BIG SANDY APT* LGT RAIN  60  51  71 S8        30.06R
6HR MIN TEMP:  60; 6HR MAX TEMP:  65;

MOREHEAD APT*  HVY RAIN  55  54  94 S5        30.06R
ASHLAND*       CLOUDY    43  43 100 CALM      30.01R
$$

KYZ035-036-041-042-044-050-067-078-099-261300
...CENTRAL KENTUCKY...

CITY           SKY/WX    TMP DP  RH WIND       PRES   REMARKS
MT STERLING*   LGT RAIN  55  55 100 S3        30.04R
FLEMING/MASON* RAIN      56  54  93 S5        30.04R
DANVILLE*      DRIZZLE   55  54  94 S7        30.02R
LEXINGTON      CLOUDY    57  54  89 S8        30.00S
6HR MIN TEMP:  56; 6HR MAX TEMP:  62; 6HR PCP:  0.24;

FRANKFORT      CLOUDY    57  53  86 S6        29.98S
6HR MIN TEMP:  57; 6HR MAX TEMP:  61; 6HR PCP:  0.20;

LOUISVILLE     LGT RAIN  58  55  90 S7        29.97R
6HR MIN TEMP:  58; 6HR MAX TEMP:  60; 6HR PCP:  0.28;

LEBANON*       LGT RAIN  57  57 100 SE9       29.99R
GLASGOW*       CLOUDY   N/A N/A N/A S7        29.98R
BOWLING GREEN  CLOUDY    60  56  86 S10       29.97R
6HR MIN TEMP:  58; 6HR MAX TEMP:  60; 6HR PCP:  0.13;

$$

KYZ091>093-OHZ055-061-077-WVZ005-015-034-035-042-261300
...SOUTHERN OHIO/WEST VIRGINIA...

CITY           SKY/WX    TMP DP  RH WIND       PRES   REMARKS
COVINGTON      LGT RAIN  57  55  93 S9        29.97F
COLUMBUS       CLOUDY    59  49  69 S5        29.98R
DAYTON         LGT RAIN  57  55  93 S8        29.98S
WILMINGTON     LGT RAIN  56  54  93 S5        30.00R
HUNTINGTON     CLOUDY    63  46  54 S5        30.02R
CHARLESTON     CLOUDY    59  46  62 S5        30.05R
PINEVILLE*     MOCLDY    48  44  85 MISG      30.14S
BECKLEY        CLOUDY    54  45  71 S12G17    30.13R
BLUEFIELD      CLOUDY    54  45  71 S10G20    30.15R
LOGAN CO APT*    N/A     61  46  59 S12G17    30.07R
$$

VAZ002-007-008-TNZ017-027-036-066-071-261300
...SOUTHWEST VIRGINIA/EAST TENNESSEE...

CITY           SKY/WX    TMP DP  RH WIND       PRES   REMARKS
WISE*          RAIN      55  46  71 CALM      30.12R
JONESVILLE*    LGT RAIN  55  55 100 CALM      30.12R
ABINGDON*      CLOUDY    59  48  66 W6        30.11S
BRISTOL        LGT RAIN  61  50  67 CALM      30.10R
MORRISTOWN*    PTSUNNY   55  55 100 CALM      30.08R
SEVIERVILLE*   MOSUNNY   55  55 100 VRB3      30.06S
KNOXVILLE      MOCLDY    58  56  93 CALM      30.07R
LAFOLLETTE*    PTSUNNY   57  55  94 CALM      30.08S
OAK RIDGE      CLOUDY    58  56  93 CALM      30.08R
CROSSVILLE     CLOUDY    56  53  90 S8        30.04R
NASHVILLE      CLOUDY    58  56  93 S8        29.98R
$$

...KEY TO REMARKS...
VSB - VISIBILITY IN MILES
WCI - WIND CHILL INDEX
HX  - HEAT INDEX

$$




USA.gov is the U.S. government's official web portal to all federal, state and local government web resources and services.